GW4632 Weather Reports


Display with metric or nautical units.
time (UTC)temp
F
wind
direction
speed
MPH
gust
MPH
rain 1hr
in
rain 24hr
in
rain mn
in
humidity
%
barometer
mb
20260503054535 52 186 0.0 9.0 0.00 0.13 0.13 58 1017.0
20260503053028 50 139 5.0 11.0 0.00 0.13 0.13 66 1017.3
20260503051515 50 169 2.0 5.0 0.00 0.13 0.13 62 1017.4
20260503050020 50 177 0.0 4.0 0.00 0.13 0.13 66 1017.5
20260503044525 49 205 1.0 3.0 0.00 0.13 0.13 70 1017.5
20260503043038 48 171 0.0 4.0 0.00 0.13 0.13 72 1017.5
20260503041528 47 193 2.0 10.0 0.00 0.13 0.13 78 1017.3
20260503040003 47 170 6.0 12.0 0.00 0.13 0.13 79 1017.2
20260503034503 49 291 2.0 11.0 0.01 0.13 0.13 68 1016.5
20260503033014 49 281 3.0 6.0 0.01 0.13 0.13 70 1016.2
20260503031504 48 323 6.0 9.0 0.01 0.13 0.13 75 1016.0
20260503030004 48 210 3.0 6.0 0.01 0.13 0.13 80 1016.5
20260503024509 48 281 6.0 9.0 0.00 0.12 0.12 74 1017.0
20260503023005 47 298 5.0 6.0 0.01 0.12 0.12 80 1016.7
20260503021516 47 323 5.0 8.0 0.03 0.12 0.12 81 1016.4
20260503020004 47 334 7.0 16.0 0.03 0.12 0.12 84 1016.3
20260503014504 48 345 11.0 15.0 0.05 0.12 0.12 78 1016.2
20260503013006 48 295 4.0 8.0 0.11 0.11 0.11 80 1017.2
20260503011504 48 265 1.0 3.0 0.09 0.09 0.09 78 1017.4
20260503010004 48 337 4.0 9.0 0.09 0.09 0.09 76 1016.8
20260503004503 51 158 3.0 24.0 0.07 0.07 0.07 63 1017.0
20260503003012 55 167 3.0 8.0 0.00 0.00 0.00 48 1016.3
20260503001506 55 351 2.0 6.0 0.00 0.00 0.00 48 1015.5
20260503000009 56 321 5.0 8.0 0.00 0.00 0.00 47 1015.0
20260502234506 57 281 4.0 7.0 0.00 0.00 0.00 45 1015.3
20260502233006 58 281 0.0 3.0 0.00 0.00 0.00 42 1015.6
20260502231513 57 281 2.0 9.0 0.00 0.00 0.00 43 1015.7
20260502230008 56 305 5.0 11.0 0.00 0.00 0.00 44 1015.8
20260502224503 56 173 0.0 4.0 0.00 0.00 0.00 42 1016.5
20260502223005 58 155 2.0 13.0 0.00 0.00 0.00 42 1016.4
20260502221510 61 173 8.0 23.0 0.00 0.00 0.00 37 1016.1
20260502220011 62 233 3.0 7.0 0.00 0.00 0.00 33 1016.1
20260502214508 63 243 4.0 6.0 0.00 0.00 0.00 31 1016.3
20260502213011 62 228 5.0 8.0 0.00 0.00 0.00 31 1016.4
20260502211508 62 211 6.0 11.0 0.00 0.00 0.00 31 1016.6
20260502210010 61 164 12.0 19.0 0.00 0.00 0.00 30 1016.7
20260502204510 62 193 4.0 8.0 0.00 0.00 0.00 30 1016.8
20260502203010 62 201 4.0 8.0 0.00 0.00 0.00 30 1016.8
20260502201514 62 187 2.0 9.0 0.00 0.00 0.00 29 1016.8
20260502200014 63 162 5.0 8.0 0.00 0.00 0.00 28 1016.9
20260502194514 62 161 5.0 11.0 0.00 0.00 0.00 28 1016.9
20260502193021 63 189 4.0 9.0 0.00 0.00 0.00 28 1017.0
20260502191515 63 148 5.0 11.0 0.00 0.00 0.00 27 1017.0
20260502190011 63 184 6.0 11.0 0.00 0.00 0.00 27 1017.1
20260502184519 62 110 3.0 12.0 0.00 0.00 0.00 28 1017.2
20260502183004 62 183 4.0 12.0 0.00 0.00 0.00 29 1017.2
20260502181509 61 157 10.0 17.0 0.00 0.00 0.00 29 1017.4
20260502163015 61 143 9.0 15.0 0.00 0.00 0.00 35 1017.2
20260502161518 60 165 6.0 12.0 0.00 0.00 0.00 38 1017.3
20260502151514 57 177 4.0 8.0 0.00 0.00 0.00 42 1017.2
20260502123023 50 205 1.0 1.0 0.00 0.00 0.00 44 1016.3
20260502121524 51 204 0.0 2.0 0.00 0.00 0.00 43 1016.3
20260502114513 52 195 0.0 1.0 0.00 0.00 0.00 40 1016.2
20260502113018 52 193 0.0 0.0 0.00 0.00 0.00 44 1016.2
20260502111524 53 193 0.0 0.0 0.00 0.00 0.00 46 1016.2
20260502110027 52 193 0.0 0.0 0.00 0.00 0.00 47 1016.2
20260502104526 53 193 0.0 1.0 0.00 0.00 0.00 47 1016.1
20260502103036 52 193 0.0 1.0 0.00 0.00 0.00 47 1016.1
20260502101520 52 193 0.0 0.0 0.00 0.00 0.00 47 1016.1
20260502091504 53 193 0.0 2.0 0.00 0.00 0.00 39 1016.5
20260502071518 56 205 1.0 2.0 0.00 0.00 0.00 17 1017.6
20260502070019 56 207 2.0 4.0 0.00 0.00 0.00 17 1017.6
20260502064504 56 207 3.0 4.0 0.00 0.00 0.00 17 1017.5
20260502063003 56 207 2.0 3.0 0.00 0.00 0.00 17 1017.4
20260502061508 56 187 2.0 3.0 0.00 0.00 0.00 16 1017.4